{"data":{"norad_id":40384,"intl_designator":"2015-005A","name":"INMARSAT 5-F2","alt_names":[],"object_type":"PAYLOAD","status":"ACTIVE","operator":null,"country":"IM","launch_date":"2015-02-01","launch_site_code":"TYMSC","launch_vehicle":null,"mission":null,"orbit_class":"UNKNOWN","rcs_meters":16.5703,"size_class":null,"mass_kg":null,"dimensions":null,"purposes":["comms"],"wikipedia_slug":null,"has_3d_model":false,"image_url":null,"decayed_at":null,"tle_current":{"epoch":"2026-09-19T20:07:55.631712Z","epoch_age_seconds":79018,"freshness":"FRESH","line1":"1 40384U 15005A   26262.83883833 -.00000290  00000+0  00000+0 0  9992","line2":"2 40384   0.0187 155.3587 0000393 332.8271 117.5231  1.00270464 41944","mean_motion":1.00270464,"eccentricity":3.93e-5,"inclination_deg":0.0187,"raan_deg":155.3587,"arg_perigee_deg":332.8271,"mean_anomaly_deg":117.5231,"bstar":0,"rev_number":4194,"period_min":1436.1158236986,"perigee_km":35785.30820099,"apogee_km":35788.62237803,"semimajor_km":42165.10228951,"source":"CELESTRAK","updated_at":"2026-09-20T09:00:35.215001Z"}}}